Weather in Pozzallo

Italy     36°43′49″N   14°50′39″E
temp.,
°C
wind,
m/s
gust,
m/s
humid.,
%
clouds,
%
prec.,
mm/h
press.,
hPa
HPBL,
m
4 july, mon
mon423:00+26nw23688 0.0 101644
02:00+26nw33600 0.0 101545
05:00+26nw33550 0.0 101529
08:00+30e23400 0.0 1015231
11:00+31s43420 0.0 1015605
14:00+32sw43380 0.0 1014743
17:00+32wsw44390 0.0 1013633
20:00+29w33430 0.0 101376
5 july, tue
tue523:00+27wnw11500 0.0 101413
02:00+26n11470 0.0 101412
05:00+26nw22440 0.0 101312
08:00+31wnw22320 0.0 1014187
11:00+34sw33260 0.0 1014956
14:00+31sse42370 0.0 1014538
17:00+32ssw33360 0.0 1014470
20:00+29w23540 0.0 1013141
6 july, wed
wed623:00+27ene00520 0.0 101411
02:00+28nnw22370 0.0 101315
05:00+29n511320 0.0 1012201
08:00+34nne612220 0.0 1013706
11:00+35se25250 0.0 1014940
14:00+32s56420 0.0 1014902
17:00+33sw56360 0.0 1013601
20:00+29wsw44520 0.0 1013137
7 july, thu
thu723:00+28ene22500 0.0 101320
02:00+27ne33450 0.0 101336
05:00+26nnw11380 0.0 101311
08:00+29sw22360 0.0 1014230
11:00+33ssw43330 0.0 1014783
14:00+33wsw78370 0.0 1013668
17:00+32w68420 0.0 1013516
20:00+27w48690 0.0 1012307
8 july, fri
fri823:00+26wnw47756 0.0 1012167
02:00+25wnw587291 0.0 1012197
05:00+25wnw22685 0.0 101140
08:00+27wnw79580 0.0 1011450
11:00+27w1112560 0.0 1011831
14:00+29w1314520 0.0 1010895
17:00+28wnw1316580 0.0 1008758
20:00+28nw611520 0.0 1008430